Regional Weather Roundup
Issued by NWS

Home | Current Version | Previous Version | Graphics & Text | Print | Product List | Glossary On
Versions: 1 2 3 4 5 6 7 8 9 10 11 12 13 14 15 16 17 18 19 20 21 22 23 24 25 26 27 28 29 30 31 32 33 34 35 36 37 38 39 40 41 42 43 44 45 46 47 48 49 50
061
ASUS43 KMKX 251210
RWRWI

WISCONSIN REGIONAL WEATHER ROUNDUP
NATIONAL WEATHER SERVICE MILWAUKEE/SULLIVAN WI
600 AM CST SUN FEB 25 2018

NOTE: "FAIR" INDICATES FEW OR NO CLOUDS BELOW 12,000 FEET WITH NO
SIGNIFICANT WEATHER AND/OR OBSTRUCTIONS TO VISIBILITY.

WIZ001-002-006>008-014>016-023>028-251300-
NORTHWEST WISCONSIN

CITY           SKY/WX    TMP DP  RH WIND       PRES   REMARKS
SUPERIOR ARPT  CLOUDY    25  20  80 W23G29    29.37R WCI  10
6HR MIN TEMP:  25; 6HR MAX TEMP:  29; 6HR PCP:  0.05;

ASHLAND        CLOUDY    26  21  81 W24G32    29.34R WCI  11
6HR MIN TEMP:  26; 6HR MAX TEMP:  28; 6HR PCP: TRACE;

HAYWARD        CLOUDY    24  20  84 SW13G22   29.41R WCI  12
6HR MIN TEMP:  25; 6HR MAX TEMP:  30; 6HR PCP:  0.02;

SIREN          CLOUDY    22  18  85 W15G25    29.50R WCI   9
6HR MIN TEMP:  22; 6HR MAX TEMP:  28;

CUMBERLAND     CLOUDY    19  18  93 W17G26    29.49R FOG     WCI   4
RICE LAKE      CLOUDY    21  18  90 SW15G23   29.52R FOG     WCI   7
6HR MIN TEMP:  21; 6HR MAX TEMP:  31;

CHETEK         CLOUDY    19  17  88 W8G18     29.52R WCI   9
6HR MIN TEMP:  19; 6HR MAX TEMP:  31; 6HR PCP:  0.01;

LADYSMITH      CLOUDY    23  19  87 SW15G23   29.47R WCI  10
6HR MIN TEMP:  23; 6HR MAX TEMP:  31; 6HR PCP:  0.03;

EAU CLAIRE     CLOUDY    19  15  84 W18G29    29.56R FOG     WCI   4
6HR MIN TEMP:  19; 6HR MAX TEMP:  32; 6HR PCP: TRACE;

MENOMONIE      CLOUDY    19  16  86 SW16G25   29.58R FOG     WCI   5
6HR MIN TEMP:  19; 6HR MAX TEMP:  32;

NEW RICHMOND   CLOUDY    17  14  86 SW13      29.57R WCI   4
6HR MIN TEMP:  17; 6HR MAX TEMP:  30;

OSCEOLA        CLOUDY    19  19 100 SW16      29.59R WCI   5
6HR MIN TEMP:  19; 6HR MAX TEMP:  30;

$$

WIZ003>005-009-010-017-018-251300-
NORTH CENTRAL WISCONSIN

CITY           SKY/WX    TMP DP  RH WIND       PRES   REMARKS
MANITOWISH WTR LGT SNOW  26  25  97 W17G26    29.29R WCI  13
6HR MIN TEMP:  26; 6HR MAX TEMP:  29; 6HR PCP:  0.02;

ARBOR VITAE    LGT SNOW  27  24  87 W16G28    29.31R WCI  15
6HR MIN TEMP:  27; 6HR MAX TEMP:  32; 6HR PCP:  0.04;

WOODRUFF       LGT SNOW  27  24  87 W16G28    29.31R WCI  15
6HR MIN TEMP:  27; 6HR MAX TEMP:  32; 6HR PCP:  0.04;

RHINELANDER    LGT SNOW  26  22  84 W18G30    29.34R FOG     WCI  13
6HR MIN TEMP:  26; 6HR MAX TEMP:  31; 6HR PCP:  0.10;

EAGLE RIVER    LGT SNOW  27  24  87 W21G39    29.29R WCI  14
6HR MIN TEMP:  27; 6HR MAX TEMP:  30;

LAND O LAKES   LGT SNOW  29  26  87 W10G21    29.28R WCI  20
6HR MIN TEMP:  28; 6HR MAX TEMP:  30;

PHILLIPS       FLURRIES  24  22  91 SW18      29.37R WCI  10
6HR MIN TEMP:  24; 6HR MAX TEMP:  30; 6HR PCP:  0.02;

TOMAHAWK       CLOUDY    24  20  85 SW12G20   29.39R FOG     WCI  13
6HR MIN TEMP:  24; 6HR MAX TEMP:  30;

MEDFORD        CLOUDY    19  16  87 SW20G28   29.45R FOG     WCI   4
6HR MIN TEMP:  19; 6HR MAX TEMP:  31;

MERRILL        CLOUDY    22  19  87 W24G30    29.44R FOG     WCI   6
6HR MIN TEMP:  22; 6HR MAX TEMP:  32; 6HR PCP:  0.07;

$$

WIZ029-030-035-036-043>047-251300-
CENTRAL WISCONSIN

CITY           SKY/WX    TMP DP  RH WIND       PRES   REMARKS
WAUSAU         CLOUDY    22  18  85 W23G35    29.45R FOG     WCI   6
6HR MIN TEMP:  22; 6HR MAX TEMP:  32; 6HR PCP:  0.08;

MOSINEE        LGT SNOW  21  19  93 SW22G29   29.49R WCI   5
MARSHFIELD     CLOUDY    22  18  85 W21G30    29.50R WCI   6
6HR MIN TEMP:  22; 6HR MAX TEMP:  32; 6HR PCP:  0.01;

STEVENS POINT  CLOUDY    22  19  91 W13G18    29.52R WCI   9
6HR MIN TEMP:  22; 6HR MAX TEMP:  31; 6HR PCP:  0.04;

WAUPACA        CLOUDY    28  22  78 SW28G33   29.54R WCI  12
6HR MIN TEMP:  28; 6HR MAX TEMP:  36; 6HR PCP:  0.06;

WAUTOMA        CLOUDY    25  20  81 W26G36    29.58R WCI   9
6HR MIN TEMP:  25; 6HR MAX TEMP:  34;

WISC RAPIDS    CLOUDY    23  17  78 MISG      29.57R
6HR MIN TEMP:  23; 6HR MAX TEMP:  33; 6HR PCP:  0.02;

CAMP DOUGLAS   CLOUDY    24  19  81 W21G35    29.62R WCI   9
6HR MIN TEMP:  24; 6HR MAX TEMP:  34; 6HR PCP:  0.01;

$$

WIZ011>013-019>022-031-037>040-048>050-251300-
NORTHEAST WISCONSIN

CITY           SKY/WX    TMP DP  RH WIND       PRES   REMARKS
ANTIGO         CLOUDY    22  19  89 W22G29    29.40R FOG     WCI   6
6HR MIN TEMP:  22; 6HR MAX TEMP:  31;

SHAWANO        CLOUDY    29  23  78 W23G36    29.47R WCI  15
6HR MIN TEMP:  29; 6HR MAX TEMP:  35; 6HR PCP:  0.09;

OCONTO         CLOUDY    30  24  79 W23G33    29.43R WCI  17
6HR MIN TEMP:  30; 6HR MAX TEMP:  34; 6HR PCP:  0.21;

STURGEON BAY   CLOUDY    30  26  85 SW26G35   29.40R WCI  16
6HR MIN TEMP:  30; 6HR MAX TEMP:  36; 6HR PCP:  0.34;

GREEN BAY      CLOUDY    29  21  72 W28G38    29.49R WCI  14
6HR MIN TEMP:  29; 6HR MAX TEMP:  36; 6HR PCP:  0.21;

MANITOWOC      CLOUDY    30  22  72 W28G41    29.50R WCI  15
6HR MIN TEMP:  30; 6HR MAX TEMP:  38; 6HR PCP:  0.16;

APPLETON       CLOUDY    27  19  74 W30G38    29.51R WCI  10
CLINTONVILLE   CLOUDY    27  21  79 W25G32    29.50R WCI  11
6HR MIN TEMP:  27; 6HR MAX TEMP:  34; 6HR PCP:  0.08;

OSHKOSH        CLOUDY    27  19  72 W18G35    29.55R WCI  14
6HR MIN TEMP:  27; 6HR MAX TEMP:  37; 6HR PCP:  0.04;

$$

WIZ032>034-041-042-053>061-251300-
SOUTHWEST WISCONSIN

CITY           SKY/WX    TMP DP  RH WIND       PRES   REMARKS
LA CROSSE      CLOUDY    23  16  74 SW9G20    29.68R WCI  13
6HR MIN TEMP:  23; 6HR MAX TEMP:  35; 6HR PCP: TRACE;

SPARTA         CLOUDY    22  18  84 W10G24    29.65R WCI  11
6HR MIN TEMP:  22; 6HR MAX TEMP:  32;

VIROQUA        CLOUDY    19  18  96 W17       29.66R WCI   4
6HR MIN TEMP:  19; 6HR MAX TEMP:  32;

BOSCOBEL       CLOUDY    25  17  72 SW20G26   29.74R WCI  11
6HR MIN TEMP:  25; 6HR MAX TEMP:  34;

PRAIRIE DU CHI CLOUDY    22  16  76 W10       29.76R WCI  11
6HR MIN TEMP:  22; 6HR MAX TEMP:  31; 6HR PCP:  0.01;

PLATTEVILLE    CLOUDY    27  24  86 W18G28    29.73R WCI  14
6HR MIN TEMP:  27; 6HR MAX TEMP:  33;

$$

WIZ056-057-062-063-064-067-068-251300-
SOUTH CENTRAL WISCONSIN

CITY           SKY/WX    TMP DP  RH WIND       PRES   REMARKS
REEDSBURG      CLOUDY    24  19  78 W16G26    29.64R WCI  11
6HR MIN TEMP:  24; 6HR MAX TEMP:  35;

BARABOO/DELLS  CLOUDY    26  19  77 W12G25    29.63R WCI  15
6HR MIN TEMP:  25; 6HR MAX TEMP:  35;

LONE ROCK      CLOUDY    26  20  77 W14G30    29.70R WCI  14
6HR MIN TEMP:  26; 6HR MAX TEMP:  35; 6HR PCP: TRACE;

MINERAL POINT  MOCLDY    28  27  93 W15G23    29.68R WCI  17
MADISON        MOCLDY    28  21  75 W10G23    29.66R WCI  19
6HR MIN TEMP:  28; 6HR MAX TEMP:  38; 6HR PCP: TRACE;

MIDDLETON      CLOUDY    29  22  76 W20G26    29.65R WCI  16
6HR MIN TEMP:  29; 6HR MAX TEMP:  38;

WATERTOWN      CLOUDY    29  23  78 W17G29    29.63S WCI  17
6HR MIN TEMP:  29; 6HR MAX TEMP:  38; 6HR PCP:  0.02;

MONROE         MOCLDY    30  23  74 W31G38    29.68R WCI  15
JANESVILLE     MOCLDY    32  27  80 W22       29.69R WCI  19
$$

WIZ051-052-058>065-066-070>072-251300-
SOUTHEAST WISCONSIN

CITY           SKY/WX    TMP DP  RH WIND       PRES   REMARKS
MILWAUKEE      MOCLDY    33  23  66 W20G33    29.64R WCI  21
6HR MIN TEMP:  32; 6HR MAX TEMP:  42; 6HR PCP:  0.15;

WAUKESHA       CLOUDY    28  21  74 W23G31    29.63R WCI  14
MILWAUKEE/TIMM CLOUDY    30  21  69 W24G35    29.63R WCI  16
RACINE         CLOUDY    32  24  72 W22G38    29.66R WCI  19
6HR MIN TEMP:  32; 6HR MAX TEMP:  43; 6HR PCP:  0.08;

BURLINGTON     MOCLDY    32  24  72 W17G30    29.68R WCI  20
6HR MIN TEMP:  31; 6HR MAX TEMP:  41; 6HR PCP:  0.01;

KENOSHA        CLOUDY    33  24  69 W23G39    29.67R WCI  21
6HR MIN TEMP:  33; 6HR MAX TEMP:  45; 6HR PCP:  0.09;

FOND DU LAC    CLOUDY    28  19  69 W20G30    29.58R WCI  15
6HR MIN TEMP:  28; 6HR MAX TEMP:  38; 6HR PCP:  0.03;

SHEBOYGAN      CLOUDY    29  23  78 W30G39    29.55R WCI  13
6HR MIN TEMP:  29; 6HR MAX TEMP:  38; 6HR PCP:  0.08;

WEST BEND      CLOUDY    30  23  74 W26G37    29.58R WCI  16
JUNEAU         CLOUDY    27  21  77 SW30G40   29.63R WCI  11
6HR MIN TEMP:  27; 6HR MAX TEMP:  37; 6HR PCP:  0.01;

$$

LSZ147-162-251300-
LAKE SUPERIOR

STATION/POSITION TIME  TEMP    WIND        PRES    WAVE
                       AIR SEA DIR/SP/G            HT/PER
                 (UTC) (F)     (DEG/KT/KT) (MB)    (FT/S)
DEVILS ISLAND    1200   30     250/ 28/ 35  991.4F
SAXON HARBOR     1130   29     230/ 10/ 22  992.6R
$$

LMZ867-665-643>646-251300-
LAKE MICHIGAN

STATION/POSITION TIME  TEMP    WIND        PRES    W



USA.gov is the U.S. government's official web portal to all federal, state and local government web resources and services.